sat.trackr.live / text

‹ back to catalog

O3B FM13

NORAD 43234 · 2018-024D

PAYLOAD ACTIVE UNKNOWN

§ Identity

Operator
Country
O3B
Launch date
2018-03-09
Launch site
FRGUI
Launch vehicle
Mass (kg)
RCS (m²)

Purposes: comms

External: N2YO · Heavens-Above · Gunter

§ Orbital elements

Epoch: 2026-09-10T00:07:45.956928Z

Period
287.93 min
Inclination
0.0572°
Eccentricity
0.0001031
Mean motion
5.00115654 rev/d
Perigee alt
8,064.4 km
Apogee alt
8,067.4 km
Semi-major
14,444.0 km
B*
0.0000e+0
RAAN
342.2225°
Arg perigee
117.0436°
Mean anomaly
260.7445°
Rev number
15,529

§ Raw data

O3B FM131 43234U 18024D   26253.00539302 -.00000028  00000+0  00000+0 0  99902 43234   0.0572 342.2225 0001031 117.0436 260.7445  5.00115654155296

JSON: /api/v1/satellites/43234 · /tle

For live sub-satellite position, see the globe view (requires WebGL).

§ Visibility from observer

Set your observer location to see the next 7 days of passes ≥ 10°. The values pass through the URL so the page stays shareable.

No JS? Fill the form by hand. The geolocation button needs JavaScript.